STARLINK-1494, 45760

Orbit data source: Space-Track

STARLINK-1494, 45760 is a payload satellite owned by SpaceX/Seattle (US) in LEO that was launched on Sat, 13 Jun 2020 UTC via an FALCON 9 launch vehicle from the Air Force Eastern Test Range (AFETR). Payload-class satellites include a variety of spacecraft equipped with specific instruments for various scientific and technological missions. These include communications satellites like Starlink; space stations such as the ISS; scientific satellites like the Hubble; Earth observation satellites from companies like Planet Labs, Umbra, and HawkEye 360; GPS; miniature CubeSats for education and research; and military/defense satellites.

Loading next visibility...
Identifier
45760, 2020-038AG
Orbit
LEO
Country
Flag of USUS
Related business
Manufacturer
SpaceX/Seattle
Mission
Partially operational Commercial Communications
Bus & Motor
STARLINK, Unknown motor
Mass
260 kg wet, ~248 kg dry
Launch date (UTC)
2020-06-13 (5 years ago)
Launch vehicle
FALCON 9
Launch site
Air Force Eastern Test Range (AFETR)
Object type
Payload
Rocket body
Debris
Shape & HBR
Box + 1 Pan, 10.1 m
Radar Cross Section
13.562 m², Large (>1 m²)

Expand to show TLE details & history
Last TLE update: 7 hours ago

TLE from 7 hours ago
0 STARLINK-1494
1 45760U 20038AG  25288.61658429  .00030985  00000-0  55003-3 0  9992
2 45760  53.0534 137.9587 0000678  93.1680 266.9406 15.49968910294754
Epoch: 2025-10-15T14:47Z
TLE epoch observation values (Epoch: 2025-10-15T14:47:52.882Z)
Latitude
0.00001°
Longitude
-108.39973°
Altitude
417.737 km
Speed
7.662 km/s
True Right ascension
09h 11m 50s
True Declination
0° 00' 00"
Sunlit
Object was in daylight at epoch
Visualization orbit readout
Latitude
Unknown
Longitude
Unknown
Altitude
Unknown
Speed
Unknown
Apparent Right ascension
Unknown
Apparent Declination
Unknown
Sunlit
N/A
Visualization observer readout
Local Sidereal Time
15:59:41
Azimuth
Unknown
Elevation
Unknown
Doppler factor
Unknown
Orbital elements
Apogee altitude
417.554 km
Perigee altitude
416.632 km
Semi-major axis
6,795.23 km
Eccentricity
0.00007
Inclination
53.0534°
RAAN
137.9587°
Arg. of periapsis
93.168°
True anomaly
266.93284°
Mean anomaly
266.9406°
Eccentric anomaly
266.93672°
Mean motion
3.87469 °/min
Orbital period
92.91 mins
BSTAR
0.00055003
Loading maneuver chart data...
Computing Atmospheric mass density...

Documentation

Showing up to 5 results
|